#timestamp,LO_Frequency,Hit,StdDev 
1562500815.8,286047001.1,P
1562500835.7,286046998.6,N
1562500855.5,286046998.4,N
1562500875.3,286046998.5,N
1562500895.2,286046998.5,N
1562500915.0,286046998.7,N
1562500915.9,286046998.7,N
1562500935.8,286046998.9,N
1562500955.6,286046997.0,Y
1562500975.4,286047001.2,P
1562500995.3,286046998.2,N
1562501015.1,286046998.1,N
1562501035.8,286046998.6,N
1562501055.7,286047001.2,N
1562501075.5,286047000.7,N
1562501095.4,286046998.9,N
1562501115.2,286046998.6,N
1562501135.0,286047000.4,N
1562501135.9,286047000.4,N
1562501155.8,286047000.8,N
1562501175.6,286047001.1,N
1562501195.4,286047001.2,N
1562501215.3,286046998.5,N
1562501235.1,286046998.5,N
1562501255.9,286046998.3,N
1562501275.7,286047000.7,N
1562501295.5,286047000.8,N
1562501315.4,286047002.8,N
1562501335.2,286047000.1,N
1562501355.0,286046999.8,N
1562501355.9,286046999.8,N
1562501375.8,286047002.7,N
1562501395.6,286047000.0,N
1562501415.5,286046999.8,N
1562501435.3,286047000.9,N
1562501455.1,286047000.3,N
1562501475.9,286047000.9,N
1562501495.7,286047000.1,N
1562501515.5,286047000.3,N
1562501535.4,286046999.8,N
1562501555.2,286046999.8,N
1562501575.1,286046999.8,N
1562501576.0,286046999.8,N
1562501595.8,286047002.6,N
1562501615.6,286047004.2,Y
1562501635.5,286047002.6,P
1562501655.3,286047002.3,N
1562501675.2,286047002.6,N
1562501695.9,286047001.6,N
1562501715.7,286047000.4,N
1562501735.6,286047002.8,N
1562501755.4,286047002.4,N
1562501775.2,286047002.0,N
1562501795.1,286047002.3,N
1562501796.0,286047002.3,N
1562501815.8,286047002.3,N
1562501835.7,286047002.2,N
1562501855.5,286047002.0,N
1562501875.3,286047002.5,Y
1562501895.2,286047000.3,P
1562501915.0,286047000.3,N
1562501915.9,286047000.3,N
1562501935.7,286047000.3,N
1562501955.6,286047000.7,N
1562501975.4,286046998.1,Y
1562501995.3,286046998.6,P
1562502015.1,286046998.4,N
1562502035.8,286046998.8,N
1562502055.7,286046998.6,N
1562502075.5,286046999.2,N
1562502095.4,286046998.4,N
1562502115.2,286046998.8,N
1562502135.0,286046998.9,N
1562502135.9,286046998.9,N
1562502155.8,286046998.8,N
1562502175.6,286046998.8,N
1562502195.4,286046999.0,N
1562502215.3,286046998.5,N
1562502235.1,286046998.7,N
1562502255.9,286046998.7,N
1562502275.7,286046998.8,N
1562502295.5,286046998.8,N
1562502315.4,286046998.4,Y
1562502335.2,286047000.9,P
1562502355.0,286047000.7,N
1562502355.9,286047000.7,N
1562502375.8,286047000.0,N
1562502395.6,286046999.9,N
1562502415.5,286046999.9,N
1562502435.3,286047000.1,N
1562502455.1,286046999.9,N
1562502475.9,286047000.3,N
1562502495.7,286047000.3,N
1562502515.6,286047000.1,N
1562502535.4,286046999.7,N
1562502555.2,286047000.1,N
1562502575.1,286047000.2,N
1562502576.0,286047000.2,N
1562502595.8,286047002.8,Y
1562502615.7,286047002.1,P
1562502635.5,286047001.8,N
1562502655.3,286047002.2,N
1562502675.2,286047001.9,N
1562502695.9,286047001.3,N
1562502715.7,286047002.2,Y
1562502735.6,286046998.2,P
1562502755.4,286046998.7,N
1562502775.3,286046999.1,N
1562502795.1,286046998.3,N
1562502796.0,286046998.3,N
1562502815.8,286047000.8,N
1562502835.7,286047001.0,N
1562502855.5,286047000.9,N
1562502875.3,286046998.5,N
1562502895.2,286047001.2,N
1562502915.0,286047001.0,N
1562502915.9,286047001.0,N
1562502935.8,286047000.0,N
1562502955.6,286047000.9,N
1562502975.4,286047000.5,N
1562502995.3,286047000.5,N
1562503015.1,286047000.8,N
1562503035.8,286046998.2,N
1562503055.7,286046998.7,N
1562503075.5,286047000.7,N
1562503095.4,286047000.9,N
1562503115.2,286047001.2,N
1562503135.0,286046998.4,N
1562503135.9,286046998.4,N
1562503155.8,286046998.3,N
1562503175.6,286046999.0,N
1562503195.4,286046999.1,N
1562503215.3,286046998.4,N
1562503235.1,286046998.2,N
1562503255.9,286046999.1,N
1562503275.7,286046998.7,N
1562503295.5,286046998.5,N
1562503315.4,286047001.1,N
1562503335.2,286046999.2,N
1562503355.0,286046998.9,N
1562503356.0,286046998.9,N
1562503375.8,286046998.4,N
1562503395.6,286046998.7,N
1562503415.5,286046998.7,N
1562503435.3,286046998.7,N
1562503455.1,286046999.4,N
1562503475.9,286046998.8,N
1562503495.7,286046999.3,N
1562503515.6,286046996.5,Y
1562503535.4,286046998.6,P
1562503555.2,286046999.5,N
1562503575.1,286046996.7,P
1562503576.0,286046996.7,Y
1562503595.8,286046998.6,P
1562503615.7,286046998.2,P
1562503635.5,286047001.1,P
1562503655.3,286046998.2,N
1562503675.2,286046998.8,N
1562503695.0,286047001.2,N
1562503695.9,286047001.2,N
1562503715.7,286047001.0,N
1562503735.6,286046998.6,N
1562503755.4,286046998.8,N
1562503775.3,286047001.1,N
1562503795.1,286046998.9,N
1562503796.0,286046998.9,N
1562503815.8,286046999.0,N
1562503835.7,286046998.3,N
1562503855.5,286046998.6,N
1562503875.4,286046998.9,N
1562503895.2,286046999.6,N
1562503915.0,286046996.9,N
1562503915.9,286046996.9,N
1562503935.8,286046997.3,N
1562503955.6,286046997.7,N
1562503975.4,286046997.8,N
1562503995.3,286046997.8,N
1562504015.1,286046997.4,N
1562504035.9,286046995.4,Y
1562504055.7,286046996.8,P
1562504075.5,286046994.9,P
1562504095.4,286046995.5,N
1562504115.2,286046995.8,N
1562504135.1,286046993.3,Y
1562504136.0,286046993.3,P
1562504155.8,286046998.7,N
1562504175.6,286047000.9,N
1562504195.5,286047000.9,N
1562504215.3,286047000.6,N
1562504235.2,286047000.8,N
1562504255.9,286046998.1,N
1562504275.7,286046998.9,N
1562504295.6,286047001.0,N
1562504315.4,286046998.6,N
1562504335.2,286046998.8,N
1562504355.1,286046998.9,N
1562504356.0,286046998.9,N
1562504375.8,286046998.7,N
1562504395.7,286046998.2,N
